Flag for Australia Weather past 2 weeks in Canberra, Australian Capital Territory, Australia

Now
48 °F

Partly sunny.


Feels Like: 45 °F
Forecast: 46 / 61 °F
Wind: 7 mph from Southeast

Location: Canberra Airport


UV Index: 3 (Moderate)

Visibility: N/A


Pressure: 30.15 "Hg

Humidity: 87%

Dew point: 45 °F

Location of CanberraLocation

Historic Weather in Canberra

°F

Canberra temperature yesterday

Maximum temperature yesterday: 68 °F (at 11:00 AM)
Minimum temperature yesterday: 41 °F (at 9:30 PM)
Average temperature yesterday: 54 °F

Past Weeks' High & Low Weather Summary

 TemperatureHumidityPressure
High70 °F (Apr 23, 4:00 PM)100% (Apr 10, 5:00 AM)30.21 "Hg (Apr 10, 5:00 AM)
Low34 °F (Apr 20, 5:30 AM)30% (Apr 24, 3:30 PM)29.68 "Hg (Apr 11, 2:00 PM)
Average54 °F78%30.05 "Hg
* Reported Apr 10 5:00 AM — Apr 25 5:30 AM, Canberra, Weather by CustomWeather, © 2014

Note: Actual official high and low records may vary slightly from our data, if they occured in-between our weather recording intervals... More about our weather records

Advertising

Historic Weather Conditions — Data for Previous 24 hours

 ConditionsComfort  
Time TempWeatherWind HumidityBarometerVisibility
5:30 AM
Apr 25
48 °FPassing clouds.6 mph94%30.15 "HgN/A
5:00 AM46 °FPassing clouds.6 mph93%30.15 "HgN/A
4:30 AM48 °FPassing clouds.6 mph94%30.12 "HgN/A
4:00 AM46 °FPassing clouds.3 mph87%30.12 "HgN/A
3:30 AM48 °FPassing clouds.2 mph82%30.12 "HgN/A
3:00 AM48 °FMostly cloudy.2 mph87%30.12 "HgN/A
2:30 AM50 °FOvercast.6 mph82%30.12 "HgN/A
2:00 AM46 °FMostly cloudy.No wind87%30.12 "HgN/A
1:30 AM48 °FPassing clouds.3 mph82%30.12 "HgN/A
1:00 AM45 °FPassing clouds.No wind87%30.12 "HgN/A
12:00 AM43 °FClear.7 mph87%30.12 "HgN/A
11:30 PM
Apr 24
41 °FClear.6 mph87%30.12 "HgN/A
11:00 PM43 °FClear.No wind87%30.12 "HgN/A
10:30 PM43 °FClear.No wind81%30.12 "HgN/A
10:00 PM43 °FClear.3 mph81%30.09 "HgN/A
9:30 PM41 °FClear.6 mph87%30.09 "HgN/A
9:00 PM45 °FClear.5 mph81%30.09 "HgN/A
8:30 PM43 °FPassing clouds.5 mph76%30.07 "HgN/A
8:00 PM46 °FPassing clouds.6 mph76%30.07 "HgN/A
7:30 PM48 °FPassing clouds.7 mph71%30.07 "HgN/A
7:00 PM55 °FPassing clouds.6 mph55%30.04 "HgN/A
6:30 PM57 °FPassing clouds.6 mph51%30.04 "HgN/A
6:00 PM57 °FPassing clouds.7 mph48%30.01 "HgN/A
5:00 PM63 °FPassing clouds.12 mph42%29.98 "HgN/A
4:30 PM66 °FClear.13 mph37%29.98 "Hg10 mi
4:00 PM66 °FSunny.15 mph35%29.98 "Hg10 mi
3:30 PM68 °FSunny.16 mph30%29.95 "Hg10 mi
3:00 PM68 °FSunny.17 mph33%29.95 "Hg10 mi
2:30 PM68 °FSunny.16 mph38%29.95 "Hg10 mi
2:00 PM68 °FPassing clouds.14 mph46%29.95 "HgN/A
1:00 PM68 °FPassing clouds.17 mph53%29.95 "HgN/A
12:30 PM68 °FPassing clouds.18 mph53%29.95 "HgN/A
12:00 PM68 °FPassing clouds.18 mph53%29.95 "HgN/A
11:30 AM68 °FPassing clouds.15 mph56%29.98 "HgN/A
11:00 AM68 °FPassing clouds.13 mph56%29.98 "HgN/A
10:30 AM66 °FPassing clouds.12 mph60%29.98 "HgN/A
10:00 AM64 °FPassing clouds.10 mph60%29.98 "HgN/A
9:30 AM63 °FPassing clouds.13 mph64%29.98 "HgN/A
9:00 AM61 °FPassing clouds.6 mph68%29.98 "HgN/A
8:00 AM52 °FScattered clouds.No wind94%29.98 "HgN/A
7:30 AM50 °FScattered clouds.No wind100%29.95 "HgN/A
7:00 AM45 °FScattered clouds.No wind100%29.95 "HgN/A
6:30 AM45 °FScattered clouds.No wind100%29.95 "HgN/A
6:00 AM45 °FScattered clouds.No wind93%29.95 "HgN/A
Weather by CustomWeather, © 2014

See weather overview